Preview of NWS' New Version of Forecast
This preview is not operational and should not be used for support decisions.
Latest weather observations around

Greenville (KGNR)

Using English Units (Switch to International System of Units)
Date/ Time (EDT) Wind (mph) Vis. (mi) Weather Sky Cond. Temp (°F) Rel. Humidity Wind Chill (°F) Heat Index (°F) Pressure Precip. (in)
Air Dwpt 6 hour Altimeter (inHg) Sea level (inHg) 1 hr 3 hr 6 hr
Max Min
Oct 15 10:56 SE 13   Clear   48        % 43   30.05 30.08      
Oct 15 09:56 SSE 6   Clear   47        % 44   30.08 30.12      
Oct 15 08:56 SSE 3   Clear   42        % 40   30.1 30.13      
Oct 15 07:56 SE 5   Clear   40        % 37   30.11 30.14      
Oct 15 06:56 ESE 3   Clear   36        % 33   30.12 30.16      
Oct 15 05:56 Calm   Clear   39        %     30.12 30.16      
Oct 15 04:56 Calm   Clear   35        %     30.12 30.16      
Oct 15 03:56 Calm   Clear   39        %     30.12 30.16      
Oct 15 02:56 Calm   Clear   36        %     30.12 30.16      
Oct 15 01:56 3   Clear   39        % 37   30.12 30.15      
Oct 15 00:56 Calm   Clear   36        %     30.12 30.16      
Oct 14 23:56 Calm   Clear   34        %     30.13 30.17      
Oct 14 22:56 NW 7   Clear   39        % 34   30.13 30.17      
Oct 14 21:56 Calm   Clear   39        %     30.13 30.17      
Oct 14 20:56 WNW 5   Clear   41        % 38   30.12 30.16      
Oct 14 19:56 WNW 6   Clear   42        % 38   30.1 30.14      
Oct 14 18:56 NW 6   Clear   42        % 38   30.09 30.13      
Oct 14 17:56 5   Clear   45        % 43   30.07 30.1      
Oct 14 16:56 6   Clear   47        % 44   30.05 30.09      
Oct 14 15:56 7   Clear   49 27     42% 46   30.04 30.07      
Oct 14 14:56 WNW 9   Clear   49 27     42% 45   30.04 30.07      
Oct 14 13:56 NW 14   Clear   47 28     48% 41   30.02 30.06      
Oct 14 12:56 NW 15   Clear   46 27     47% 40   30.03 30.06      
Oct 14 11:56 WNW 13   Clear   44 27     51% 38   30.02 30.06      
Oct 14 10:56 WNW 8   Clear   41 26     55% 36   30.04 30.07      
Oct 14 09:56 NW 11   Clear   39 25     57% 32   30.04 30.09      
Oct 14 08:56 NW 14   Clear   37 25     61% 28   30.03 30.07      
Oct 14 07:56 WNW 13   Clear   36 27     70% 27   30 30.04      
Oct 14 06:56 6   Clear   34 27     75% 29   29.98 30.03      
Oct 14 05:56 WNW 8   Clear   34 26     72% 27   29.96 30.01      
Oct 14 04:56 WNW 11   Clear   34 25     69% 26   29.94 29.98      
Oct 14 03:56 NW 8   Clear   34 26     72% 27   29.93 29.97      
Oct 14 02:56 NW 13   Clear   34 25     69% 25   29.9 29.94      
Oct 14 01:56 WNW 13   Clear   35 27     72% 26   29.89 29.93      
Oct 14 00:56 NW 13   Clear   36 28     73% 27   29.88 29.91      
Oct 13 23:56 WNW 9   Clear   37 31     78% 30   29.87 29.91      
Oct 13 22:56 7   Clear   38 31     76% 33   29.84 29.88      
Oct 13 21:56 6   Clear   37 31     78% 32   29.83 29.87      
Oct 13 20:56 WNW 8   Clear   38 31     76% 32   29.81 29.85      
Oct 13 19:56 NW 7   Clear   36 32     85% 30   29.79 29.83      
Oct 13 18:56 NW 9   Clear   37 33     85% 30   29.77 29.81      
Oct 13 17:56 6   Clear   39 32     76% 35   29.74 29.78      
Oct 13 16:56 NW 8   Clear   40 33     76% 34   29.72 29.76      
Oct 13 15:56 3   Clear   41 30     65% 39   29.7 29.74      
Oct 13 14:56 Calm   Clear   41 28     60%     29.7 29.74      
Oct 13 13:56 Calm   Clear   42 27     55%     29.7 29.73      
Oct 13 12:56 Calm   Clear   41 26     55%     29.71 29.74      
Oct 13 11:56 5   Clear   41 26     55% 38   29.72 29.75      
Oct 13 10:56 3   Clear   40 28     62% 38   29.71 29.75      
Oct 13 09:56 Calm   Clear   40 29     65%     29.7 29.74      
Oct 13 05:56 3   Clear   37 29     72% 35   29.65 29.68      
Oct 13 01:56 WNW 6   Clear   38 31     76% 33   29.62 29.65      
Oct 13 00:56 WNW 8   Clear   39 31     72% 33   29.61 29.64      
Oct 12 17:56 NW 22   Clear and Windy   44 34     67% 35   29.48 29.5      
Oct 12 08:56 5   Clear   48 43     83% 46   29.52 29.54      
Oct 12 07:56 NW 14   Clear   49 47     93% 44   29.52 29.54      
Oct 11 17:56 ESE 8   Clear   42 41     96% 37   29.67 29.7 0    
Oct 11 10:56 ESE 15   Clear   41 40     96% 33   29.83 29.86 0 0  
Oct 10 18:56 ESE 7   Clear   46 45     96% 42   30 30.01      
Oct 10 11:56 Calm   Clear   54 54     100%     29.99 30      
Oct 10 09:56 NW 11   Clear   54 54     100%     30.01 30.02      
Oct 10 08:56 NNW 10   Clear   65 65     100%     30 29.99 0    
Oct 10 01:56 3   Clear   66 63     90%     29.99 29.98      
Oct 10 00:56 Calm   Clear   66 63     90%     30 30      
Oct 09 20:56 3   Clear   66 64     93%     30.03 30.03      
Oct 09 18:56 3   Clear   67 64     90%     30.05 30.06      
Oct 09 17:56 Calm   Clear   70 64     81%     30.04 30.05      
Oct 09 12:56 Calm   Clear   63 61     93%     30.09 30.1      
Oct 09 04:56 SE 7   Clear   46 46     100% 42   30.18 30.2      
Oct 09 02:56 Calm   Clear   45 45     100%     30.22 30.25      
Oct 08 18:56 S 3   Clear   46 39     76% 45   30.37 30.41      
Oct 08 17:56 Calm   Clear   47 39     74%     30.39 30.43      
Oct 08 13:56 5   Clear   48 36     63% 46   30.44 30.48      
Oct 08 07:56 NE 3   Clear   38 32     79% 36   30.49 30.54      
Oct 08 05:56 NNE 6   Clear   39 32     76% 35   30.45 30.49      
Oct 07 21:56 6   Clear   41 35     79% 37   30.36 30.4      
Oct 07 20:56 NNW 6   Clear   40 35     83% 36   30.35 30.39      
Oct 07 17:56 N 9   Clear   43 36     76% 38   30.3 30.33      
Oct 07 15:56 NNW 8   Clear   50 37     61%     30.25 30.27      
Oct 07 11:56 N 13   Clear   51 40     65%     30.22 30.24      
Oct 07 10:56     Clear   49 41     74%     30.2 30.22      
Oct 07 06:56 NNW 11   Clear   51 48     89%     30.1 30.12      
Oct 07 05:56 NNW 7   Clear   51 50     96%     30.06 30.09      
Oct 06 23:56 3   Clear   47 43     86% 46   30.03 30.06      
Oct 06 18:56 SE 8   Clear   48 39     71% 44   30.07 30.11      
Oct 06 16:56 SE 7   Clear   49 37     63% 46   30.11 30.14      
Oct 06 15:56 SSE 6   Clear   51 36     56%     30.12 30.14      
Oct 06 12:56 SE 7   Clear   48 32     54% 45   30.17 30.2      
Oct 06 05:56 Calm   Clear   38 34     85%     30.21 30.24      
Oct 06 04:56 Calm   Clear   40 36     86%     30.19 30.22      
Oct 06 00:56 Calm   Clear   42 31     64%     30.19 30.22      
Oct 05 23:56 NW 5   Clear   43 32     65% 40   30.19 30.23      
Oct 05 20:56 N 3   Clear   45 33     63% 44   30.18 30.22      
Oct 05 19:56 NW 5   Clear   44 36     73% 41   30.19 30.23      
Oct 05 17:56 N 5   Clear   47 33     58% 45   30.17 30.2      
Oct 05 16:56 N 6   Clear   49 31     50% 46   30.16 30.19      
Notice The following observation data may not be complete
Oct 05 14:56     Clear            %              
Oct 05 08:56 NNE 11   Clear   40 28     62% 33   30.22 30.24      
Oct 05 07:56 N 10   Clear   38 29     70% 31   30.19 30.22      
Oct 05 06:56 N 8   Clear   37 30     76% 31   30.16 30.19      
Oct 05 05:56 N 5   Clear   37 32     82% 33   30.14 30.17      
Oct 05 04:56 N 10   Clear   38 34     85% 31   30.12 30.14      
Oct 05 03:56 N 7   Clear   41 35     79% 36   30.09 30.11      
Oct 05 02:56 N 10   Clear   43 35     73% 37   30.05 30.07      
Oct 05 01:56     Clear   45 40     82%     30.03 30.05     0
Oct 05 00:56     Clear   47        %     30.01 30.03      
Oct 04 23:56     Clear   50        %     29.98 29.99      
Oct 04 22:56 NW 11   Clear   53        %     29.95 29.96   0  
Oct 04 21:56     Clear   58        %     29.92 29.93 0    
Oct 04 20:56 Calm   Clear   57        %     29.87 29.88      
Oct 04 19:56 Calm   Clear   56        %     29.85 29.87     0
Oct 04 18:56 SSW 3   Clear   57        %     29.85 29.86      
Oct 04 17:56 Calm   Clear   57        %     29.83 29.85 0    
Oct 04 16:56 3   Clear   57        %     29.82 29.83 0 0  
Oct 04 15:56 S 8   Clear   58        %     29.8 29.82      
Oct 04 14:56 S 9   Clear   57        %     29.81 29.82      
Oct 04 13:56 S 8   Clear   56        %     29.81 29.82      
Oct 04 12:56 7   Clear   54        %     29.82 29.83      
Oct 04 11:56 S 6   Clear   54        %     29.84 29.85      
Oct 04 10:56 SSE 8   Clear   53        %     29.88 29.89      
Oct 04 09:56 SSE 7   Clear   51        %     29.91 29.93      
Oct 04 08:56 SSE 7   Clear   51        %     29.92 29.93      
Oct 04 07:56 6   Clear   49        % 46   29.93 29.95     0
Oct 04 06:56 SSE 7   Clear   48 48     100% 45   29.94 29.96      
Oct 04 05:56 SSE 6   Clear   48 48     100% 45   29.95 29.97 0    
Oct 04 04:56 6   Clear   48 48     100% 45   29.95 29.98      
Oct 04 03:56 6   Clear   48 48     100% 45   29.98 30      
Oct 04 02:56 Calm   Clear   48 48     100%     29.99 30.01      
Oct 04 01:56 SE 6   Clear   47 47     100% 44   30.01 30.04      
Oct 04 00:56 3   Clear   48 47     96% 47   30.02 30.04      
Oct 03 23:56 3   Clear   48 47     96% 47   30.04 30.06      
Oct 03 22:56 Calm   Clear   49 47     93%     30.06 30.08      
Oct 03 21:56 NE 3   Clear   49 47     93% 48   30.08 30.11      
Sep 25 09:56 SSE 11   Clear   43 34     70% 37   30.53 30.57      
Sep 25 08:56 SE 9   Clear   41 34     76% 35   30.55 30.59      
May 15 06:56 SSE 3   Clear   57 47     69%     29.75 29.75      
May 13 14:56 S 9   Clear   65 23     20%     30.02 30.04      
May 13 09:56 3   Clear   56 26     31%     30.13 30.15      
May 12 18:56 NW 11   Clear   56 24     29%     30.01 30.03      
May 12 03:56 NNW 5   Clear   33 21     61% 29   30.11 30.15      
May 11 22:56 WNW 5   Clear   37 24     59% 33   30.08 30.12      
May 11 18:56 WNW 9   Clear   45 22     40% 40   30 30.03      
May 11 08:56     Clear   35 24     64%     29.85 29.88      
Jun 11 22:56 6   Clear   76 61     60%   76 29.85 29.82      
Jun 11 18:56 6   Clear   82 57     43%   82 29.78 29.76      
Jun 10 13:56 5   Clear   71 37     29%   69 29.9 29.9      
Jun 10 05:56 6   Clear   48 41     77% 45   29.84 29.85      
Notice The following observation data may not be complete
Jun 08 11:56     Clear            %              
Jun 06 08:56 ENE 6   Clear   48 39     71% 45   29.97 29.99      
Jun 06 06:56 E 9   Clear   44 39     82% 39   29.98 30      
Notice The following observation data may not be complete
Jun 06 02:56     Clear            %